This is the latest recevied weather packets stored in our database for station/object KA9CBS. If no packets are shown the sender has not sent any weather packets the latest 10 day(s).
| Time | Temp. | Humidity | Pressure | Rain* | Wind** | Luminosity | Snow |
|---|---|---|---|---|---|---|---|
| 1777726900 | 8.33° C | 94% | 1019.1 hPa | 0 mm | - | 112 W/m² | - |
| 1777726595 | 8.33° C | 94% | 1019.3 hPa | 0 mm | - | 98 W/m² | - |
| 1777726293 | 8.33° C | 93% | 1019.4 hPa | 0 mm | - | 91 W/m² | - |
| 1777725989 | 8.33° C | 93% | 1019 hPa | 1.78 mm | - | 78 W/m² | - |
| 1777725686 | 7.78° C | 93% | 1019.1 hPa | 1.27 mm | - | 67 W/m² | - |
| 1777725385 | 7.78° C | 93% | 1019.4 hPa | 1.27 mm | - | 45 W/m² | - |
| 1777725081 | 7.78° C | 92% | 1019.3 hPa | 0 mm | - | 21 W/m² | - |
| 1777724778 | 8.33° C | 92% | 1019.8 hPa | 0 mm | - | 12 W/m² | - |
| 1777724475 | 8.33° C | 91% | 1019.3 hPa | 0 mm | - | 6 W/m² | - |
| 1777724173 | 8.33° C | 91% | 1019.3 hPa | 0 mm | - | 7 W/m² | - |
| 1777723870 | 7.78° C | 91% | 1019.2 hPa | 0 mm | - | 8 W/m² | - |
| 1777723566 | 8.33° C | 92% | 1018.8 hPa | 0 mm | - | 9 W/m² | - |
| 1777723263 | 8.33° C | 92% | 1018.7 hPa | 0 mm | - | 10 W/m² | - |
| 1777722962 | 8.33° C | 91% | 1018.7 hPa | 0 mm | - | 10 W/m² | - |
| 1777722656 | 7.78° C | 91% | 1018.7 hPa | 0 mm | - | 8 W/m² | - |
| 1777722353 | 7.78° C | 92% | 1018.7 hPa | 0 mm | - | 6 W/m² | - |
| 1777722050 | 7.78° C | 92% | 1018.7 hPa | 0 mm | - | 6 W/m² | - |
| 1777721748 | 7.78° C | 93% | 1018.5 hPa | 0 mm | - | 12 W/m² | - |
| 1777721446 | 7.78° C | 93% | 1018.4 hPa | 0 mm | - | 25 W/m² | - |
| 1777721144 | 7.78° C | 93% | 1018.5 hPa | 0 mm | - | 19 W/m² | - |
| 1777720841 | 7.22° C | 93% | 1018.4 hPa | 0 mm | - | 12 W/m² | - |
| 1777720538 | 7.22° C | 93% | 1018.3 hPa | 0 mm | - | 9 W/m² | - |
| 1777720236 | 7.22° C | 92% | 1018.4 hPa | 0 mm | - | 5 W/m² | - |
| 1777719933 | 7.22° C | 93% | 1018.4 hPa | 0 mm | - | 2 W/m² | - |
| 1777719631 | 7.22° C | 92% | 1018.6 hPa | 0 mm | - | 1 W/m² | - |
* Rain latest hour (hover to see other rain measurements)
** Current wind speed in m/s (hover to see current wind gust speed)